Regional Weather Roundup
Issued by NWS

Home | Current Version | Previous Version | Graphics & Text | Print | Product List | Glossary Off
Versions: 1 2 3 4 5 6 7 8 9 10 11 12 13 14 15 16 17 18 19 20 21 22 23 24 25 26 27

000
ASUS45 KCYS 252110
RWRWY

WYOMING REGIONAL WEATHER ROUNDUP
NATIONAL WEATHER SERVICE CHEYENNE WY
300 PM MDT WED MAY 25 2016

NOTE:  "FAIR" INDICATES FEW OR NO CLOUDS BELOW 12,000 FEET
WITH NO SIGNIFICANT WEATHER AND/OR OBSTRUCTIONS TO VISIBILITY.

WYZ001-252200-
YELLOWSTONE NATIONAL PARK

CITY           SKY/WX    TMP DP  RH WIND       PRES   REMARKS
LK YELLOWSTONE   N/A     38  34  85 NW7G20    30.09R WCI  33
W YELLOWSTONE  NOT AVBL

$$
WYZ002>013-054>058-071-098>099-252200-
NORTHERN WYOMING

CITY           SKY/WX    TMP DP  RH WIND       PRES   REMARKS
JACKSON        PTSUNNY   52  37  58 S8        30.03S
CODY           FAIR      57  43  58 NE5       29.92F
GREYBULL       FAIR      57  50  77 E8        29.91F
WORLAND        FAIR      59  46  62 NE9       29.92R
SHERIDAN       CLOUDY    55  47  74 SW9       29.94S
BUFFALO          N/A    N/A N/A N/A MISG      29.96R
GILLETTE       FAIR      62  40  44 SW8       29.91F
HULETT         CLOUDY    59  43  55 CALM      29.92F
NEWCASTLE      FAIR      64  36  34 NW13G22   29.91F

$$
WYZ014>020-022>026-101>103-252200-
CENTRAL WYOMING

CITY           SKY/WX    TMP DP  RH WIND       PRES   REMARKS
BIG PINEY      FAIR      53  33  46 W8        30.06S
PINEDALE       FAIR      50  37  62 W5        30.07F
DUBOIS         MOCLDY    55  27  33 W15G25    30.00R
LANDER         PTSUNNY   58  34  40 SW6       29.93R
RIVERTON       LGT RAIN  55  39  54 W10       29.95R
CASPER         LGT RAIN  59  39  47 NW14      29.93F
DOUGLAS          N/A    N/A N/A N/A MISG      29.94S

$$
WYZ021-027>030-104>119-252200-
SOUTHERN WYOMING

CITY           SKY/WX    TMP DP  RH WIND       PRES   REMARKS
EVANSTON       TSTM      49  36  61 S7        30.08S
KEMMERER         N/A     50  32  50 W14G24    30.10R
FORT BRIDGER   CLOUDY    48  36  61 W13       30.11F
ROCK SPRINGS   CLOUDY    48  36  63 S10       30.08S
DIXON          FAIR      64  25  22 SW21G31   30.06F THUNDER
RAWLINS        CLOUDY    58  25  28 W20       30.03F
SARATOGA       FAIR      61  27  27 W15G28    30.05F THUNDER
LARAMIE        FAIR      61  21  21 W29G37    30.04S
CHEYENNE       PTSUNNY   59  38  45 E5        29.98F
TORRINGTON     FAIR      74  28  18 W18G28    29.89F
PINE BLUFFS    FAIR      57  41  54 N12       29.99R

$$




USA.gov is the U.S. government's official web portal to all federal, state and local government web resources and services.